Date String (YYYY-MM-DD hh:mm:ss) UTC,Instrument flags,Ambient pressure (hPa),Sample flow (lpm),Bypass flow (lpm),Sample temperature (°C),Ambient temperature (°C),ASC tube jacket temperature (°C),LED temperature (°C),Box temperature (°C),Sample RH (%),Span deviation,Mass concentration (μg/m³),Mass concentration (μg/m³),Mass concentration (μg/m³)
DateTimeUTC,F1_M11,P_M11,Q1_M11,Q2_M11,T1_M11,T2_M11,T3_M11,T4_M11,T5_M11,U1_M11,ZSPAN_M11,X0_M11,X2_M11,X1_M11
2023-03-05 00:00:00,,0816.8,5.01,0.00,22.8,21.0,00.0,31.5,24.5,15.8,-000.7,0011.64,0007.67,0007.18
2023-03-05 00:01:00,,0817.1,5.00,0.00,22.7,21.0,00.0,31.5,24.5,15.9,-000.9,0011.55,0007.64,0007.18
2023-03-05 00:02:00,,0817.1,4.99,0.00,22.7,21.0,00.0,31.5,24.5,15.9,-000.8,0011.59,0007.66,0007.20
2023-03-05 00:03:00,,0817.1,4.99,0.00,22.7,21.0,00.0,31.5,24.5,15.9,-000.9,0011.61,0007.69,0007.24
2023-03-05 00:04:00,,0817.0,5.00,0.00,22.7,21.0,00.0,31.5,24.5,15.9,-001.1,0011.64,0007.69,0007.25
2023-03-05 00:05:00,,0816.9,5.00,0.00,22.7,21.0,00.0,31.5,24.5,15.9,-001.3,0011.75,0007.74,0007.26
2023-03-05 00:06:00,,0816.8,5.00,0.00,22.7,21.0,00.0,31.5,24.5,15.9,-001.5,0011.92,0007.78,0007.29
2023-03-05 00:07:00,,0816.8,5.01,0.00,22.7,20.9,00.0,31.5,24.5,15.8,-001.4,0012.18,0007.86,0007.34
2023-03-05 00:08:00,,0816.9,5.01,0.00,22.7,20.9,00.0,31.5,24.5,15.8,-001.1,0012.25,0007.91,0007.37
2023-03-05 00:09:00,,0816.9,5.01,0.00,22.7,20.9,00.0,31.5,24.5,15.9,-000.6,0012.15,0007.94,0007.40
2023-03-05 00:10:00,,0816.9,5.00,0.00,22.7,20.9,00.0,31.4,24.5,15.9,-000.5,0012.08,0008.01,0007.43
2023-03-05 00:11:00,,0816.8,4.99,0.00,22.7,20.9,00.0,31.4,24.5,15.9,-000.4,0011.60,0008.05,0007.47
2023-03-05 00:12:00,,0817.2,5.00,0.00,22.6,20.9,00.0,31.4,24.4,15.9,-000.0,0011.74,0008.11,0007.49
2023-03-05 00:13:00,,0816.9,5.00,0.00,22.6,20.9,00.0,31.4,24.4,15.9,0000.1,0011.78,0008.14,0007.50
2023-03-05 00:14:00,,0816.8,5.02,0.00,22.6,20.9,00.0,31.4,24.4,16.0,0000.4,0011.81,0008.15,0007.50
2023-03-05 00:15:00,,0816.8,5.00,0.00,22.6,20.9,00.0,31.4,24.4,16.0,0000.5,0011.87,0008.16,0007.50
2023-03-05 00:16:00,,0816.8,4.99,0.00,22.6,20.9,00.0,31.4,24.4,16.0,0000.5,0011.86,0008.17,0007.52
2023-03-05 00:17:00,,0816.5,5.00,0.00,22.6,20.9,00.0,31.4,24.4,16.0,0000.8,0011.77,0008.14,0007.52
2023-03-05 00:18:00,,0816.5,5.00,0.00,22.6,21.0,00.0,31.4,24.4,16.0,0001.0,0011.73,0008.08,0007.49
2023-03-05 00:19:00,,0816.6,4.98,0.00,22.6,21.0,00.0,31.4,24.4,16.1,0000.9,0012.29,0008.08,0007.48
2023-03-05 00:20:00,,0816.7,5.01,0.00,22.6,21.0,00.0,31.4,24.4,16.1,0000.7,0012.58,0008.10,0007.47
2023-03-05 00:21:00,,0816.6,5.02,0.00,22.6,21.0,00.0,31.4,24.4,16.1,0000.7,0012.93,0008.09,0007.43
2023-03-05 00:22:00,,0816.9,4.99,0.00,22.6,21.0,00.0,31.4,24.4,16.1,0000.9,0013.02,0008.07,0007.39
2023-03-05 00:23:00,,0816.9,4.99,0.00,22.6,21.0,00.0,31.3,24.4,16.2,0001.1,0012.99,0008.05,0007.37
2023-03-05 00:24:00,,0816.7,5.01,0.00,22.6,21.0,00.0,31.3,24.4,16.2,0001.1,0012.91,0008.03,0007.36
2023-03-05 00:25:00,,0816.6,5.00,0.00,22.6,21.0,00.0,31.3,24.4,16.2,0001.2,0012.86,0008.03,0007.34
2023-03-05 00:26:00,,0816.6,5.00,0.00,22.6,21.0,00.0,31.3,24.4,16.2,0001.4,0012.85,0008.04,0007.35
2023-03-05 00:27:00,,0816.6,5.01,0.00,22.6,21.3,00.0,31.3,24.5,16.2,0001.2,0012.88,0008.02,0007.35
2023-03-05 00:28:00,,0816.6,4.98,0.00,22.7,22.2,00.0,31.3,24.6,16.2,0000.9,0013.51,0008.06,0007.36
2023-03-05 00:29:00,,0816.5,5.00,0.00,22.8,23.0,00.0,31.3,24.8,16.1,0000.6,0013.57,0008.10,0007.38
2023-03-05 00:30:00,,0816.6,4.99,0.00,22.8,22.8,00.0,31.4,24.8,15.9,0000.5,0013.00,0008.10,0007.40
2023-03-05 00:31:00,,0816.6,5.00,0.00,22.8,22.4,00.0,31.4,24.8,15.8,0000.5,0012.81,0008.13,0007.44
2023-03-05 00:32:00,,0816.6,5.01,0.00,22.8,22.1,00.0,31.4,24.7,15.7,0000.8,0012.52,0008.17,0007.50
2023-03-05 00:33:00,,0816.5,5.01,0.00,22.8,21.8,00.0,31.4,24.6,15.6,0000.8,0012.81,0008.25,0007.56
2023-03-05 00:34:00,,0816.6,4.99,0.00,22.8,21.6,00.0,31.4,24.6,15.6,0000.5,0013.16,0008.30,0007.62
2023-03-05 00:35:00,,0816.6,5.00,0.00,22.8,21.5,00.0,31.4,24.6,15.5,0000.4,0013.31,0008.38,0007.67
2023-03-05 00:36:00,,0816.8,5.01,0.00,22.8,21.4,00.0,31.5,24.6,15.5,0000.5,0013.40,0008.40,0007.72
2023-03-05 00:37:00,,0816.6,4.99,0.00,22.8,21.3,00.0,31.5,24.6,15.5,0000.4,0013.42,0008.41,0007.74
2023-03-05 00:38:00,,0816.7,5.01,0.00,22.8,21.3,00.0,31.5,24.6,15.5,0000.6,0013.35,0008.41,0007.78
2023-03-05 00:39:00,,0816.6,5.00,0.00,22.7,21.2,00.0,31.5,24.6,15.5,0000.8,0012.78,0008.39,0007.79
2023-03-05 00:40:00,,0816.7,5.00,0.00,22.7,21.2,00.0,31.5,24.5,15.5,0000.7,0012.37,0008.35,0007.80
2023-03-05 00:41:00,,0816.6,5.00,0.00,22.7,21.2,00.0,31.5,24.5,15.5,0000.6,0012.37,0008.36,0007.80
2023-03-05 00:42:00,,0816.4,4.99,0.00,22.7,21.2,00.0,31.5,24.6,15.5,0000.4,0012.36,0008.34,0007.80
2023-03-05 00:43:00,,0816.4,5.01,0.00,22.7,21.1,00.0,31.5,24.5,15.5,0000.4,0012.35,0008.32,0007.79
2023-03-05 00:44:00,,0816.4,5.00,0.00,22.7,21.1,00.0,31.5,24.5,15.6,0000.2,0012.29,0008.31,0007.80
2023-03-05 00:45:00,,0816.4,5.01,0.00,22.7,21.0,00.0,31.4,24.5,15.6,0000.2,0012.60,0008.33,0007.81
2023-03-05 00:46:00,,0816.4,5.00,0.00,22.7,21.0,00.0,31.4,24.5,15.6,0000.2,0012.57,0008.30,0007.81
2023-03-05 00:47:00,,0816.4,5.00,0.00,22.7,21.7,00.0,31.4,24.6,15.6,-000.1,0012.60,0008.32,0007.82
2023-03-05 00:48:00,,0816.5,4.99,0.00,22.8,22.8,00.0,31.4,24.8,15.6,-000.5,0012.68,0008.32,0007.82
2023-03-05 00:49:00,,0816.4,5.01,0.00,22.9,23.3,00.0,31.5,25.0,15.6,-000.7,0012.79,0008.36,0007.83
2023-03-05 00:50:00,,0816.2,4.97,0.00,23.0,22.9,00.0,31.5,24.9,15.6,-000.9,0012.99,0008.42,0007.83
2023-03-05 00:51:00,,0816.1,5.00,0.00,22.9,22.5,00.0,31.5,24.9,15.6,-001.1,0013.28,0008.50,0007.84
2023-03-05 00:52:00,,0816.1,5.00,0.00,22.9,22.2,00.0,31.6,24.8,15.6,-000.9,0013.25,0008.50,0007.84
2023-03-05 00:53:00,,0816.2,5.01,0.00,22.9,22.0,00.0,31.6,24.8,15.6,-000.6,0013.27,0008.52,0007.84
2023-03-05 00:54:00,,0816.4,5.01,0.00,22.9,21.8,00.0,31.6,24.7,15.6,-000.8,0013.45,0008.53,0007.83
2023-03-05 00:55:00,,0816.4,5.01,0.00,22.9,21.6,00.0,31.6,24.7,15.6,-000.9,0013.39,0008.52,0007.81
2023-03-05 00:56:00,,0816.4,5.01,0.00,22.9,21.5,00.0,31.6,24.7,15.6,-000.9,0012.76,0008.49,0007.79
2023-03-05 00:57:00,,0816.4,5.00,0.00,22.9,21.4,00.0,31.6,24.7,15.6,-000.9,0012.68,0008.45,0007.76
2023-03-05 00:58:00,,0816.3,5.00,0.00,22.9,21.3,00.0,31.6,24.6,15.6,-000.7,0012.63,0008.44,0007.72
2023-03-05 00:59:00,,0816.2,5.01,0.00,22.8,21.3,00.0,31.6,24.6,15.6,-000.3,0012.61,0008.45,0007.71
